RH
17 17 17 15 14 13 12 10 9 9 17 43 67 81 74 79 88 88 78 54 53 70 86 98 84 68 60 46 36 24 23 21 20 18 17 15 15 15 18 20 26 36 40
18 18 20 22 24 24 22 20 19 17 14 10 14 46 68 76 79 90 88 84 62 60 64 83 94 90 80 75 75 42 29 27 24 23 21 19 17 16 18 20 22 28 37
16 16 16 16 16 16 15 15 16 18 21 20 17 11 17 53 79 92 96 88 88 79 76 75 84 90 96 93 89 88 63 36 31 28 27 24 23 20 19 20 22 23 28
15 16 15 15 14 14 15 16 17 17 16 16 20 20 15 23 72 93 98 85 76 89 86 81 78 81 91 98 98 93 91 87 45 35 33 32 30 28 29 25 23 25 26
17 17 18 19 19 21 23 23 21 20 18 16 19 21 20 17 48 84 94 86 83 84 95 91 84 84 88 97 100 99 97 94 93 72 46 40 38 37 34 34 37 40 37
19 19 21 22 24 26 28 30 30 29 27 26 19 16 23 22 27 71 86 85 77 75 96 98 99 96 98 95 100 96 94 97 99 97 89 70 63 58 52 45 37 37 38
19 20 23 27 30 34 34 32 31 30 30 34 34 29 30 28 24 43 85 88 78 77 85 82 97 98 97 100 93 71 82 92 96 99 100 98 91 86 80 71 64 57 50
21 28 35 36 36 38 40 39 45 41 41 42 40 54 49 40 33 31 86 99 95 100 93 100 99 92 88 89 78 68 76 83 99 93 93 98 100 96 89 90 83 86 88
25 30 34 38 42 43 45 48 53 55 52 50 43 58 69 75 54 41 70 98 98 99 98 99 93 92 90 85 77 83 79 88 96 92 97 100 99 100 98 96 92 90 85
33 32 37 39 40 42 42 45 49 56 69 69 58 64 72 93 82 67 57 75 94 99 99 86 88 97 95 85 73 88 84 100 97 89 98 98 99 97 100 100 99 97 95
43 44 45 45 41 38 45 56 64 63 79 77 91 72 74 97 99 71 56 53 68 78 78 79 81 99 97 86 79 81 88 87 90 94 97 91 92 91 98 97 99 99 100
42 46 48 37 16 13 12 20 63 76 86 98 80 86 77 81 98 81 60 50 50 74 91 81 88 99 99 93 92 87 89 86 95 99 100 100 99 96 96 100 99 98 100
12 15 12 7 5 4 4 4 14 69 77 81 99 100 100 95 91 96 96 72 59 70 73 72 100 99 98 97 96 100 100 98 100 100 99 98 100 100 100 98 98 99 99
10 9 8 9 8 7 6 4 4 10 77 96 93 92 99 100 100 98 89 82 75 77 97 100 94 98 100 100 100 100 100 100 100 97 99 97 98 99 100 100 100 99 99
17 18 18 18 18 18 15 9 5 3 5 63 99 99 99 99 100 97 93 91 87 78 84 86 82 91 99 99 99 100 100 100 100 100 100 94 91 86 88 99 100 99 99
19 19 18 18 16 15 15 14 9 5 3 3 7 41 78 91 93 94 93 91 95 96 91 95 94 99 94 92 98 99 99 99 99 87 97 100 93 86 93 96 99 100 90
20 20 20 19 17 16 14 13 10 7 4 4 4 4 4 4 5 17 51 86 94 90 87 92 97 95 95 90 95 97 94 93 94 84 84 79 98 87 99 94 89 98 97
24 22 21 21 20 18 15 13 10 8 8 9 8 7 6 5 4 4 4 4 4 5 11 38 49 74 58 89 96 98 98 97 94 89 80 84 77 66 99 77 79 92 96
26 27 28 26 23 18 12 10 12 14 16 16 18 20 20 16 12 9 8 7 7 6 5 4 4 4 4 4 5 16 27 38 53 74 75 83 86 77 70 69 77 82 80
32 33 32 30 21 12 12 22 32 35 37 37 36 36 34 31 26 22 17 14 13 13 12 10 9 8 7 6 6 5 4 4 4 4 13 35 32 30 26 30 41 80 82
38 39 36 27 13 12 30 38 38 34 34 34 34 34 34 34 33 30 27 24 20 16 14 12 11 11 10 11 11 12 12 10 8 6 5 4 4 6 7 6 7 33 90
49 44 36 18 10 33 42 38 33 32 35 31 30 31 27 23 23 27 32 30 25 25 23 21 19 17 16 14 13 12 10 9 8 8 8 7 6 6 5 4 4 7 9
54 49 31 10 31 43 40 35 28 30 26 26 27 19 12 12 13 13 12 12 16 18 21 22 22 27 26 29 25 22 18 13 10 9 8 7 6 6 6 5 5 5 5
56 48 15 29 44 37 35 33 32 27 28 26 12 12 11 11 12 14 16 18 23 28 30 29 29 31 33 34 32 28 25 23 20 18 14 12 10 8 7 6 6 5 5
57 41 18 42 37 34 34 34 29 32 20 12 11 11 10 12 18 23 24 25 28 34 36 38 40 42 44 41 36 29 25 24 24 24 18 16 14 13 12 10 8 6 5
60 20 39 38 35 35 31 30 33 24 13 11 12 11 15 22 23 27 31 36 40 45 43 38 28 18 16 15 14 14 12 12 12 10 13 14 14 13 12 11 10 9 8
Wind_Speed
37 38 39 40 41 42 42 41 42 44 46 46 45 44 42 40 38 37 36 33 34 34 35 34 31 29 28 26 24 22 21 20 20 20 20 20 20 20 20 20 20 20 20
32 33 34 35 36 39 41 43 44 44 45 48 50 50 48 45 42 40 39 38 37 37 37 36 36 34 33 31 29 27 25 23 23 22 21 21 21 21 22 22 21 21 21
30 31 31 32 32 33 34 37 40 44 47 48 50 51 52 51 46 42 42 41 39 40 40 39 38 38 36 35 33 32 31 28 27 25 24 23 23 23 23 23 22 22 22
25 26 28 29 30 31 35 39 42 45 47 50 52 52 52 52 50 45 42 43 43 42 42 42 41 40 38 36 37 36 36 34 32 29 27 26 25 25 24 24 24 23 23
27 28 30 29 30 33 37 38 39 40 43 48 52 54 54 52 51 49 46 44 44 43 43 44 43 41 40 38 37 42 39 40 40 37 33 31 29 27 27 26 25 24 23
28 30 30 29 31 31 33 34 34 34 38 41 47 55 56 55 53 52 50 47 46 44 41 43 47 43 41 41 36 38 37 40 45 41 41 37 35 32 31 29 27 26 25
29 30 29 28 30 31 30 33 33 36 35 37 44 48 52 50 52 51 46 47 45 44 44 49 35 36 32 31 29 38 36 35 37 53 48 40 43 41 38 34 32 30 28
26 26 27 28 29 28 32 30 34 38 37 32 36 39 45 43 44 46 42 43 45 44 48 39 34 32 32 31 31 31 32 36 34 37 44 48 46 43 42 39 37 34 32
25 24 25 26 27 31 32 32 35 38 39 32 31 35 31 31 32 39 41 39 45 39 40 30 37 34 34 34 37 34 33 33 34 38 43 46 49 44 44 42 41 39 36
24 24 24 26 26 27 31 32 30 38 32 30 27 26 26 27 27 29 33 33 34 42 38 36 32 33 33 38 37 35 32 35 35 32 39 36 36 48 46 42 39 43 42
22 22 23 23 26 29 31 32 31 32 25 27 23 18 22 22 23 27 34 32 33 34 29 30 33 34 36 38 37 36 35 34 33 32 32 34 29 30 39 42 41 35 48
21 22 22 23 24 25 26 28 27 26 26 22 19 16 17 20 18 22 26 31 35 29 30 34 41 41 38 40 44 43 35 31 34 38 37 34 37 38 40 35 38 45 37
20 20 21 22 22 23 24 26 26 25 26 18 16 16 17 19 22 20 21 20 28 32 38 38 39 50 48 51 50 39 39 41 36 32 33 35 36 39 42 45 48 38 37
19 19 20 22 23 23 24 24 23 23 20 18 17 19 18 19 21 24 25 26 25 28 28 19 43 27 35 34 38 33 29 27 35 37 35 31 35 41 39 42 47 42 38
20 21 21 21 22 23 23 22 22 21 19 16 15 14 16 18 23 24 24 25 26 30 37 43 44 42 22 19 29 30 36 46 31 33 34 36 36 38 38 42 44 42 39
22 22 23 23 24 23 23 22 21 19 18 17 15 16 17 18 20 22 22 22 24 25 25 23 26 29 44 36 30 24 23 28 35 37 33 36 42 41 41 40 41 45 46
24 24 23 23 23 24 24 23 22 20 18 17 17 17 17 17 19 20 21 22 24 27 26 28 29 30 27 30 39 31 33 35 35 34 37 43 41 40 40 41 44 45 47
24 24 24 24 23 22 22 21 21 21 20 18 17 16 16 16 17 18 19 21 23 25 26 28 29 32 32 32 34 36 36 39 40 40 41 45 48 51 48 46 47 53 48
26 24 24 24 23 22 21 20 19 19 19 21 20 18 17 17 17 17 19 20 21 23 24 26 27 30 31 33 34 36 38 39 39 39 42 42 41 44 47 49 49 49 52
25 25 25 23 22 21 19 19 20 21 21 21 23 24 24 23 21 20 21 21 22 23 24 25 25 26 28 29 30 32 34 36 37 39 41 42 43 45 46 46 48 51 51
25 25 24 22 22 20 20 22 24 24 23 23 23 24 24 25 27 27 25 24 25 26 26 26 26 27 28 29 30 31 32 31 32 35 36 39 43 43 44 44 44 44 47
25 24 23 22 21 21 23 25 25 24 25 25 25 26 27 26 25 25 27 27 26 26 28 28 27 28 28 29 29 29 30 31 30 34 34 31 36 38 40 42 45 44 46
26 23 22 21 21 23 25 25 24 26 27 27 27 26 27 28 29 26 25 24 24 24 24 26 26 27 28 28 28 28 29 31 31 31 35 30 35 34 37 39 41 44 46
26 24 22 20 22 25 26 26 24 26 27 28 28 27 28 28 27 25 23 22 22 23 26 28 30 30 33 33 34 35 33 33 32 31 34 36 33 34 32 35 38 40 43
26 23 22 23 24 25 25 26 26 27 27 28 28 28 27 25 22 22 21 22 25 27 31 33 34 34 35 35 37 40 39 40 38 35 33 39 37 38 34 32 35 37 40
25 23 21 23 23 25 25 26 27 26 27 27 27 27 24 20 21 23 26 27 28 28 30 30 31 32 34 34 35 35 35 35 35 37 32 38 38 39 42 35 34 36 39
Wind_Direction
284 282 281 281 281 282 280 277 274 271 268 265 262 260 260 259 256 253 253 250 251 252 252 253 253 253 255 257 257 255 257 257 256 254 252 248 246 246 246 245 243 243 244
288 287 286 283 282 281 280 280 278 276 272 270 267 263 260 257 257 256 253 251 248 249 252 252 253 253 252 253 253 253 252 253 254 254 253 251 248 245 244 244 244 243 243
291 290 288 285 284 283 283 282 280 279 276 270 267 266 261 259 254 252 251 251 250 248 249 250 251 253 252 254 254 254 253 251 251 251 251 251 250 247 244 243 244 244 245
298 296 293 292 290 286 286 286 284 281 278 277 273 265 262 258 255 249 249 249 248 249 250 250 251 252 253 255 257 258 255 254 251 248 247 246 245 246 245 244 242 242 243
298 297 297 298 296 296 293 289 285 282 280 279 275 270 264 257 253 250 248 248 249 249 248 248 249 248 251 254 257 256 255 256 253 247 244 244 244 243 244 245 244 245 245
302 306 309 306 307 308 305 298 295 293 287 280 274 269 265 258 252 250 249 249 250 250 247 251 247 250 253 253 257 266 265 264 264 244 243 239 240 241 242 242 242 243 245
310 308 305 306 311 313 314 316 314 309 302 287 279 274 267 258 251 249 250 247 251 249 253 255 258 250 256 254 260 265 262 265 268 264 248 243 240 237 237 238 239 240 243
316 312 313 315 317 315 321 314 316 315 313 298 286 279 272 264 254 248 251 248 247 253 247 249 256 259 258 259 262 260 264 256 248 266 260 261 249 239 238 237 237 238 242
314 318 320 319 319 316 319 316 317 318 308 306 288 278 271 271 262 248 246 263 244 259 261 257 254 257 259 263 264 261 256 254 260 253 253 249 251 249 243 242 238 240 241
319 323 325 325 323 324 326 323 317 324 304 306 292 274 259 266 264 257 249 254 264 252 258 264 260 254 256 255 257 257 255 248 252 255 247 248 255 254 247 249 249 249 243
322 323 326 327 328 329 326 325 324 322 314 314 304 283 252 264 247 258 254 256 262 263 271 266 261 262 254 253 252 252 249 248 250 253 249 254 257 258 247 247 251 257 247
331 329 326 327 330 333 334 333 328 326 318 310 303 289 275 275 283 258 258 256 258 263 267 270 259 255 251 252 261 249 245 252 240 243 245 242 247 248 252 248 249 252 256
325 322 321 322 323 323 324 324 329 323 325 299 307 303 280 270 272 274 263 259 259 262 265 271 250 245 250 257 257 233 232 233 239 238 240 244 250 247 246 252 254 249 251
312 313 316 319 321 322 322 323 323 326 322 318 294 275 294 285 280 271 274 271 273 271 268 268 253 233 237 228 229 217 227 231 234 252 252 256 253 251 253 249 251 244 243
311 315 318 319 321 322 322 322 321 320 318 314 296 291 286 287 281 282 282 280 276 272 261 262 270 265 245 246 246 243 246 252 250 247 255 256 255 257 260 254 251 249 252
308 311 313 315 317 317 318 319 317 315 312 309 303 294 288 282 280 281 282 280 279 273 273 277 278 263 258 271 267 263 260 256 255 257 256 253 255 257 254 251 249 246 248
305 308 311 312 313 313 314 317 320 319 315 312 307 303 298 292 288 285 283 282 278 277 278 275 273 276 276 276 269 272 262 268 266 260 253 254 253 258 248 250 251 253 253
303 306 308 310 311 311 312 314 315 318 322 319 313 309 305 301 296 292 290 288 284 282 281 276 273 275 275 271 265 264 264 268 267 264 259 257 252 251 254 255 253 250 253
304 307 310 311 311 312 313 315 316 316 316 317 317 315 310 306 302 297 294 291 287 284 282 278 275 271 269 270 269 268 267 267 268 266 263 261 256 252 254 254 253 253 251
304 306 308 309 311 312 313 316 316 315 313 312 309 308 308 307 302 298 297 294 291 288 285 283 282 279 275 272 271 269 267 268 267 266 264 263 262 261 261 259 258 254 250
300 303 304 306 308 310 312 314 313 313 312 313 311 307 303 299 298 300 299 296 295 295 293 291 289 286 284 282 280 277 272 269 268 267 265 265 262 262 260 258 258 258 254
299 300 301 304 306 308 312 314 312 312 314 312 311 310 307 304 299 297 297 299 299 295 295 294 293 292 292 293 290 287 284 281 276 275 272 268 267 266 265 265 263 259 254
296 298 298 301 304 308 310 310 310 310 312 309 308 308 307 306 304 303 300 299 300 302 300 299 299 299 297 293 289 286 284 282 280 279 276 268 268 266 265 265 263 263 260
293 296 299 299 304 308 309 309 309 309 309 309 309 309 308 306 304 303 302 301 299 300 300 300 299 300 299 297 295 291 287 283 280 280 278 276 269 267 265 266 265 264 262
291 292 296 301 307 308 309 309 310 310 309 309 309 308 307 305 303 302 301 303 303 303 300 301 302 301 297 295 294 292 290 288 285 283 279 276 274 271 268 266 267 264 262
289 290 294 301 305 310 308 308 310 308 307 309 310 308 305 305 305 305 306 305 303 299 299 299 299 299 299 297 297 294 293 292 289 285 286 278 277 277 270 262 264 268 265